Osceola, WI

8:16 PM CST on February 11, 2016 (GMT -0600)
Simenstad Municipal

Weather History for KOEO - October, 2011

Change the Weather History Date:

Wednesday, October 26, 2011

  Actual Average (KMSP) Record (KMSP)
Temperature  
Mean Temperature 41 °F 45 °F  
Max Temperature 50 °F 53 °F 83 °F (1955)
Min Temperature 32 °F 36 °F 16 °F (1962)
Degree Days  
Heating Degree Days 24 20  
Month to date heating degree days 397  
Since 1 July heating degree days 570  
Cooling Degree Days 0 0  
Month to date cooling degree days 3  
Year to date cooling degree days 750  
Moisture  
Dew Point 35 °F    
Average Humidity 80    
Maximum Humidity 100    
Minimum Humidity 50    
Precipitation  
Precipitation 0.00 in 0.06 in 1.54 in (1941)
Month to date precipitation 2.12  
Year to date precipitation 27.37  
Snow  
Snow 0.00 in 0.10 in 1.30 in (1959)
Month to date snowfall 0.4  
Since 1 July snowfall 0.4  
Since 1 September snowfall 0.4  
Snow Depth -    
Sea Level Pressure  
Sea Level Pressure 30.08 in    
Wind  
Wind Speed 3 mph (NNW)    
Max Wind Speed 6 mph    
Max Gust Speed -    
Visibility 10 miles    
Events Rain    
T = Trace of Precipitation, MM = Missing Value Source: NWS Daily Summary

Daily Weather History Graph

Daily Weather History Graph

Search for Another Location

Airport or City:

Trip Planner

Search our weather history database for the weather conditions in past years. The results will help you decide how hot, cold, wet, or windy it might be!

Date:

Astronomy

Oct. 26, 2011 Rise Set
Actual Time 7:41 AM CDT 6:07 PM CDT
Civil Twilight 7:10 AM CDT 6:37 PM CDT
Nautical Twilight 6:36 AM CDT 7:12 PM CDT
Astronomical Twilight 6:02 AM CDT 7:46 PM CDT
Moon 7:32 AM CDT (10/26) 5:46 PM CDT (10/26)
Length of Visible Light 11h 26m
Length of Day
10h 26m
Waning Crescent, 0% of the Moon is Illuminated
Oct 26
Waning Crescent
Oct 26
New
Nov 2
First Quarter
Nov 10
Full
Nov 18
Last Quarter

Hourly Weather History & Observations

Time (CDT) Temp. Windchill Dew Point Humidity Pressure Visibility Wind Dir Wind Speed Gust Speed Precip Events Conditions
12:15 AM 39.2 °F 35.9 °F 35.6 °F 87% 30.06 in 10.0 mi North 4.6 mph - N/A   Overcast
12:35 AM 39.2 °F 35.0 °F 35.6 °F 87% 30.06 in 10.0 mi North 5.8 mph - N/A   Overcast
12:55 AM 39.2 °F 35.9 °F 35.6 °F 87% 30.06 in 10.0 mi North 4.6 mph - N/A   Overcast
1:15 AM 39.2 °F 35.0 °F 35.6 °F 87% 30.07 in 10.0 mi North 5.8 mph - N/A   Overcast
1:35 AM 39.2 °F 35.0 °F 35.6 °F 87% 30.07 in 10.0 mi North 5.8 mph - N/A   Overcast
1:55 AM 39.2 °F 37.0 °F 37.4 °F 93% 30.06 in 10.0 mi North 3.5 mph - N/A   Light Drizzle
2:15 AM 39.2 °F 35.9 °F 35.6 °F 87% 30.06 in 10.0 mi North 4.6 mph - N/A   Overcast
2:35 AM 39.2 °F 37.0 °F 37.4 °F 93% 30.08 in 10.0 mi North 3.5 mph - N/A   Overcast
2:55 AM 39.2 °F 37.0 °F 37.4 °F 93% 30.08 in 10.0 mi North 3.5 mph - N/A   Overcast
3:15 AM 39.2 °F 37.0 °F 37.4 °F 93% 30.07 in 10.0 mi North 3.5 mph - N/A Rain Light Rain
3:35 AM 39.2 °F - 37.4 °F 93% 30.07 in 10.0 mi Calm Calm - N/A   Overcast
3:55 AM 39.2 °F - 37.4 °F 93% 30.08 in 10.0 mi Calm Calm - N/A   Overcast
4:15 AM 39.2 °F - 37.4 °F 93% 30.08 in 10.0 mi Calm Calm - N/A Rain Rain
4:35 AM 37.4 °F 34.9 °F 37.4 °F 100% 30.09 in 10.0 mi WNW 3.5 mph - N/A   Overcast
4:55 AM 37.4 °F 34.9 °F 37.4 °F 100% 30.08 in 10.0 mi West 3.5 mph - N/A   Overcast
5:15 AM 37.4 °F - 37.4 °F 100% 30.08 in 10.0 mi Calm Calm - N/A   Overcast
6:15 AM 37.4 °F 34.9 °F 37.4 °F 100% 30.10 in 10.0 mi NNW 3.5 mph - N/A   Overcast
6:35 AM 37.4 °F - 37.4 °F 100% 30.09 in 10.0 mi Calm Calm - N/A   Overcast
6:55 AM 39.2 °F - 37.4 °F 93% 30.09 in 10.0 mi Calm Calm - N/A   Overcast
7:15 AM 37.4 °F - 37.4 °F 100% 30.09 in 10.0 mi Calm Calm - N/A Rain Rain
7:35 AM 37.4 °F - 37.4 °F 100% 30.09 in 10.0 mi Calm Calm - N/A   Overcast
7:55 AM 37.4 °F - 37.4 °F 100% 30.10 in 10.0 mi Calm Calm - N/A   Overcast
8:15 AM 37.4 °F - 37.4 °F 100% 30.09 in 10.0 mi Calm Calm - N/A   Overcast
8:35 AM 37.4 °F - 37.4 °F 100% 30.10 in 10.0 mi Calm Calm - N/A   Scattered Clouds
8:55 AM 37.4 °F - 37.4 °F 100% 30.10 in 10.0 mi Calm Calm - N/A   Clear
9:15 AM 39.2 °F 35.9 °F 37.4 °F 93% 30.11 in 10.0 mi NNW 4.6 mph - N/A   Mostly Cloudy
9:35 AM 39.2 °F 35.9 °F 37.4 °F 93% 30.11 in 10.0 mi NNW 4.6 mph - N/A   Overcast
10:35 AM 41.0 °F 39.0 °F 37.4 °F 87% 30.11 in 10.0 mi NNE 3.5 mph - N/A   Scattered Clouds
10:55 AM 41.0 °F - 37.4 °F 87% 30.12 in 10.0 mi Calm Calm - N/A   Scattered Clouds
11:15 AM 41.0 °F 39.0 °F 37.4 °F 87% 30.13 in 10.0 mi NNW 3.5 mph - N/A   Scattered Clouds
11:35 AM 42.8 °F - 39.2 °F 87% 30.13 in 10.0 mi Calm Calm - N/A   Clear
11:55 AM 44.6 °F 41.4 °F 37.4 °F 76% 30.13 in 10.0 mi North 5.8 mph - N/A   Scattered Clouds
12:15 PM 46.4 °F 44.3 °F 37.4 °F 71% 30.13 in 10.0 mi NNW 4.6 mph - N/A   Mostly Cloudy
12:35 PM 46.4 °F 43.5 °F 37.4 °F 71% 30.11 in 10.0 mi NNE 5.8 mph - N/A   Mostly Cloudy
12:55 PM 46.4 °F 43.5 °F 35.6 °F 66% 30.11 in 10.0 mi WNW 5.8 mph - N/A   Scattered Clouds
1:15 PM 46.4 °F 44.3 °F 35.6 °F 66% 30.11 in 10.0 mi WNW 4.6 mph - N/A   Scattered Clouds
1:35 PM 48.2 °F - 33.8 °F 58% 30.10 in 10.0 mi North 3.5 mph - N/A   Scattered Clouds
1:55 PM 50.0 °F - 35.6 °F 58% 30.10 in 10.0 mi SW 4.6 mph - N/A   Mostly Cloudy
2:15 PM 46.4 °F 45.2 °F 33.8 °F 62% 30.09 in 10.0 mi NW 3.5 mph - N/A   Scattered Clouds
2:35 PM 50.0 °F - 33.8 °F 54% 30.08 in 10.0 mi Calm Calm - N/A   Scattered Clouds
2:55 PM 48.2 °F - 32.0 °F 54% 30.07 in 10.0 mi West 3.5 mph - N/A   Scattered Clouds
3:15 PM 50.0 °F - 33.8 °F 54% 30.07 in 10.0 mi West 3.5 mph - N/A   Mostly Cloudy
3:35 PM 48.2 °F - 32.0 °F 54% 30.07 in 10.0 mi Calm Calm - N/A   Scattered Clouds
3:55 PM 50.0 °F - 32.0 °F 50% 30.07 in 10.0 mi Calm Calm - N/A   Scattered Clouds
4:15 PM 50.0 °F - 32.0 °F 50% 30.07 in 10.0 mi Calm Calm - N/A   Overcast
4:35 PM 50.0 °F - 32.0 °F 50% 30.06 in 10.0 mi NNW 5.8 mph - N/A   Mostly Cloudy
4:55 PM 50.0 °F - 32.0 °F 50% 30.06 in 10.0 mi West 4.6 mph - N/A   Scattered Clouds
5:15 PM 48.2 °F - 32.0 °F 54% 30.05 in 10.0 mi West 5.8 mph - N/A   Scattered Clouds
5:35 PM 46.4 °F 44.3 °F 32.0 °F 57% 30.05 in 10.0 mi WNW 4.6 mph - N/A   Clear
5:55 PM 44.6 °F 42.2 °F 30.2 °F 57% 30.05 in 10.0 mi NW 4.6 mph - N/A   Clear
6:15 PM 44.6 °F 43.1 °F 30.2 °F 57% 30.05 in 10.0 mi WNW 3.5 mph - N/A   Clear
6:35 PM 44.6 °F 43.1 °F 30.2 °F 57% 30.05 in 10.0 mi NW 3.5 mph - N/A   Clear
6:55 PM 42.8 °F 41.1 °F 30.2 °F 61% 30.06 in 10.0 mi NW 3.5 mph - N/A   Clear
7:15 PM 41.0 °F - 30.2 °F 65% 30.06 in 10.0 mi Calm Calm - N/A   Clear
7:35 PM 37.4 °F - 32.0 °F 81% 30.06 in 10.0 mi Calm Calm - N/A   Clear
7:55 PM 37.4 °F - 32.0 °F 81% 30.06 in 7.0 mi Calm Calm - N/A   Clear
8:15 PM 33.8 °F - 30.2 °F 87% 30.06 in 10.0 mi Calm Calm - N/A   Clear
8:35 PM 33.8 °F - 32.0 °F 93% 30.06 in 10.0 mi Calm Calm - N/A   Clear
8:55 PM 33.8 °F - 30.2 °F 87% 30.07 in 10.0 mi Calm Calm - N/A   Scattered Clouds
9:15 PM 33.8 °F - 30.2 °F 87% 30.07 in 10.0 mi Calm Calm - N/A   Scattered Clouds
9:35 PM 32.0 °F - 30.2 °F 93% 30.06 in 10.0 mi Calm Calm - N/A   Clear
9:55 PM 32.0 °F - 30.2 °F 93% 30.06 in 10.0 mi Calm Calm - N/A   Mostly Cloudy
10:15 PM 32.0 °F - 30.2 °F 93% 30.06 in 10.0 mi Calm Calm - N/A   Overcast
10:35 PM 32.0 °F - 32.0 °F 100% 30.07 in 10.0 mi Calm Calm - N/A   Overcast
10:55 PM 33.8 °F - 32.0 °F 93% 30.07 in 10.0 mi Calm Calm - N/A   Overcast
11:15 PM 33.8 °F - 32.0 °F 93% 30.06 in 10.0 mi Calm Calm - N/A   Overcast
11:35 PM 33.8 °F - 32.0 °F 93% 30.06 in 10.0 mi Calm Calm - N/A   Overcast
11:55 PM 33.8 °F - 32.0 °F 93% 30.06 in 10.0 mi Calm Calm - N/A   Overcast